Wrangell, AK

6:03 PM AKST on January 20, 2018 (GMT -0900)
Wrangell

Weather History for PAWG - November, 2014

Change the Weather History Date:

Wednesday, November 5, 2014

  Actual Average Record
Temperature  
Mean Temperature 44 °F -  
Max Temperature 46 °F 43 °F 56 °F (1949)
Min Temperature 42 °F 34 °F 20 °F (1973)
Degree Days  
Heating Degree Days 21    
Moisture  
Dew Point 36 °F    
Average Humidity 76    
Maximum Humidity 81    
Minimum Humidity 66    
Precipitation  
Precipitation 0.46 in - - ()
Sea Level Pressure  
Sea Level Pressure 29.56 in    
Wind  
Wind Speed 12 mph (East)    
Max Wind Speed 24 mph    
Max Gust Speed 36 mph    
Visibility 9 miles    
Events      
Averages and records for this station are not official NWS values.
T = Trace of Precipitation, MM = Missing Value Source: NWS Daily Summary

Daily Weather History Graph

Daily Weather History Graph

Search for Another Location

Airport or City:

Trip Planner

Search our weather history database for the weather conditions in past years. The results will help you decide how hot, cold, wet, or windy it might be!

Date:

Astronomy

Nov. 05, 2014 Rise Set
Actual Time 7:07 AM AKST 3:58 PM AKST
Civil Twilight 6:26 AM AKST 4:39 PM AKST
Nautical Twilight 5:41 AM AKST 5:24 PM AKST
Astronomical Twilight 4:57 AM AKST 6:07 PM AKST
Moon 3:41 PM AKST (11/5) 5:22 AM AKST (11/5)
Length of Visible Light 10h 12m
Length of Day
8h 50m
Waxing Gibbous, 99% of the Moon is Illuminated
Nov 5
Waxing Gibbous
Nov 6
Full
Nov 14
Last Quarter
Nov 22
New
Nov 29
First Quarter

Hourly Weather History & Observations

Time (AKST) Temp. Windchill Dew Point Humidity Pressure Visibility Wind Dir Wind Speed Gust Speed Precip Events Conditions
12:16 AM 42.8 °F 35.8 °F 37.4 °F 81% 30.05 in 10.0 mi East 13.8 mph - N/A   Overcast
12:36 AM 42.8 °F 37.0 °F 37.4 °F 81% 30.05 in 10.0 mi East 10.4 mph 16.1 mph N/A   Overcast
12:56 AM 42.8 °F 35.8 °F 37.4 °F 81% 30.06 in 10.0 mi ESE 13.8 mph - N/A   Overcast
1:16 AM 42.8 °F 35.4 °F 35.6 °F 76% 30.05 in 10.0 mi SE 15.0 mph - N/A   Overcast
1:36 AM 42.8 °F 35.4 °F 37.4 °F 81% 30.05 in 10.0 mi East 15.0 mph - N/A   Overcast
1:56 AM 42.8 °F 36.6 °F 37.4 °F 81% 30.05 in 10.0 mi East 11.5 mph - N/A   Overcast
2:16 AM 42.8 °F 36.6 °F 37.4 °F 81% 30.04 in 10.0 mi East 11.5 mph - N/A   Overcast
2:36 AM 42.8 °F 36.2 °F 37.4 °F 81% 30.04 in 10.0 mi ESE 12.7 mph - N/A   Overcast
2:56 AM 42.8 °F 36.6 °F 37.4 °F 81% 30.03 in 10.0 mi East 11.5 mph - N/A   Overcast
3:16 AM 42.8 °F 36.6 °F 37.4 °F 81% 30.02 in 10.0 mi East 11.5 mph - N/A   Overcast
3:36 AM 42.8 °F 37.0 °F 37.4 °F 81% 30.02 in 10.0 mi East 10.4 mph - N/A   Mostly Cloudy
3:56 AM 42.8 °F 36.2 °F 37.4 °F 81% 30.00 in 10.0 mi East 12.7 mph 17.3 mph N/A   Mostly Cloudy
4:16 AM 42.8 °F 36.6 °F 37.4 °F 81% 29.99 in 10.0 mi East 11.5 mph - N/A   Overcast
4:36 AM 42.8 °F 37.0 °F 37.4 °F 81% 29.99 in 10.0 mi NE 10.4 mph - N/A   Overcast
4:56 AM 42.8 °F 38.0 °F 37.4 °F 81% 29.99 in 10.0 mi East 8.1 mph - N/A   Overcast
5:16 AM 42.8 °F 38.0 °F 37.4 °F 81% 29.97 in 10.0 mi East 8.1 mph - N/A   Overcast
5:36 AM 42.8 °F 38.0 °F 37.4 °F 81% 29.96 in 10.0 mi East 8.1 mph - N/A   Overcast
5:56 AM 42.8 °F 41.1 °F 35.6 °F 76% 29.96 in 10.0 mi East 3.5 mph - N/A   Overcast
6:16 AM 42.8 °F 38.0 °F 37.4 °F 81% 29.94 in 10.0 mi East 8.1 mph - N/A   Overcast
6:36 AM 42.8 °F 36.6 °F 37.4 °F 81% 29.93 in 10.0 mi East 11.5 mph - N/A   Overcast
6:56 AM 42.8 °F 37.0 °F 37.4 °F 81% 29.92 in 10.0 mi East 10.4 mph - N/A   Overcast
7:16 AM 42.8 °F 36.6 °F 37.4 °F 81% 29.90 in 10.0 mi East 11.5 mph - N/A   Overcast
7:36 AM 42.8 °F 37.0 °F 37.4 °F 81% 29.88 in 10.0 mi East 10.4 mph - N/A   Overcast
7:56 AM 42.8 °F 37.0 °F 37.4 °F 81% 29.86 in 10.0 mi East 10.4 mph - N/A   Mostly Cloudy
8:16 AM 42.8 °F 36.6 °F 35.6 °F 76% 29.84 in 10.0 mi ESE 11.5 mph - N/A   Mostly Cloudy
8:36 AM 42.8 °F 38.0 °F 35.6 °F 76% 29.82 in 10.0 mi East 8.1 mph - N/A   Mostly Cloudy
8:56 AM 42.8 °F 38.6 °F 35.6 °F 76% 29.80 in 10.0 mi SE 6.9 mph - N/A   Overcast
9:16 AM 42.8 °F 39.3 °F 35.6 °F 76% 29.79 in 10.0 mi ESE 5.8 mph - N/A   Overcast
9:36 AM 42.8 °F 38.6 °F 35.6 °F 76% 29.76 in 10.0 mi East 6.9 mph - N/A   Overcast
9:56 AM 42.8 °F 38.0 °F 35.6 °F 76% 29.73 in 10.0 mi ESE 8.1 mph - N/A   Overcast
10:16 AM 42.8 °F 38.0 °F 37.4 °F 81% 29.68 in 10.0 mi ESE 8.1 mph - N/A   Overcast
10:36 AM 42.8 °F 37.5 °F 37.4 °F 81% 29.64 in 10.0 mi ESE 9.2 mph - N/A   Overcast
10:56 AM 42.8 °F 38.0 °F 35.6 °F 76% 29.63 in 10.0 mi ESE 8.1 mph - N/A   Overcast
11:16 AM 44.6 °F 39.7 °F 35.6 °F 71% 29.60 in 10.0 mi East 9.2 mph - N/A   Overcast
11:36 AM 44.6 °F 39.2 °F 35.6 °F 71% 29.57 in 10.0 mi East 10.4 mph - N/A   Overcast
11:56 AM 44.6 °F 38.1 °F 33.8 °F 66% 29.55 in 10.0 mi East 13.8 mph 18.4 mph N/A   Overcast
12:16 PM 42.8 °F 36.2 °F 37.4 °F 81% 29.55 in 10.0 mi East 12.7 mph 18.4 mph N/A   Overcast
12:36 PM 42.8 °F 36.6 °F 33.8 °F 70% 29.52 in 10.0 mi East 11.5 mph - N/A   Overcast
12:56 PM 42.8 °F 36.6 °F 33.8 °F 70% 29.48 in 10.0 mi East 11.5 mph - 0.01 in   Overcast
1:16 PM 42.8 °F 37.0 °F 33.8 °F 70% 29.45 in 10.0 mi East 10.4 mph 17.3 mph N/A   Overcast
1:36 PM 42.8 °F 35.8 °F 35.6 °F 76% 29.41 in 10.0 mi East 13.8 mph 18.4 mph 0.01 in   Overcast
1:56 PM 42.8 °F 34.5 °F 35.6 °F 76% 29.35 in 7.0 mi East 18.4 mph 25.3 mph 0.03 in   Overcast
2:16 PM 42.8 °F 36.2 °F 33.8 °F 70% 29.30 in 7.0 mi ESE 12.7 mph 21.9 mph N/A   Overcast
2:36 PM 42.8 °F 36.6 °F 35.6 °F 76% 29.25 in 7.0 mi East 11.5 mph 19.6 mph 0.01 in   Overcast
2:56 PM 42.8 °F 35.8 °F 35.6 °F 76% 29.23 in 8.0 mi ENE 13.8 mph 18.4 mph 0.01 in   Overcast
3:16 PM 42.8 °F 34.8 °F 35.6 °F 76% 29.18 in 8.0 mi ENE 17.3 mph 27.6 mph 0.01 in   Overcast
3:36 PM 42.8 °F 37.0 °F 35.6 °F 76% 29.17 in 8.0 mi ENE 10.4 mph 25.3 mph 0.01 in   Overcast
3:56 PM 42.8 °F 35.4 °F 35.6 °F 76% 29.13 in 8.0 mi East 15.0 mph 21.9 mph 0.01 in   Overcast
4:16 PM 42.8 °F 34.3 °F 33.8 °F 70% 29.07 in 8.0 mi East 19.6 mph 32.2 mph N/A   Overcast
4:36 PM 44.6 °F 40.2 °F 35.6 °F 71% 29.05 in 8.0 mi East 8.1 mph - N/A   Overcast
4:56 PM 44.6 °F 38.8 °F 35.6 °F 71% 29.03 in 8.0 mi ENE 11.5 mph 19.6 mph 0.01 in   Overcast
5:16 PM 44.6 °F 38.8 °F 35.6 °F 71% 29.01 in 8.0 mi ENE 11.5 mph 19.6 mph 0.01 in   Overcast
5:36 PM 44.6 °F 38.8 °F 37.4 °F 76% 29.00 in 8.0 mi ENE 11.5 mph 16.1 mph 0.02 in   Overcast
5:56 PM 44.6 °F 38.1 °F 37.4 °F 76% 29.00 in 8.0 mi East 13.8 mph 21.9 mph 0.02 in   Overcast
6:16 PM 44.6 °F 38.8 °F 37.4 °F 76% 29.00 in 8.0 mi East 11.5 mph 19.6 mph N/A   Overcast
6:36 PM 44.6 °F 38.8 °F 37.4 °F 76% 29.00 in 8.0 mi East 11.5 mph 16.1 mph 0.01 in   Overcast
6:56 PM 44.6 °F 38.4 °F 37.4 °F 76% 29.00 in 8.0 mi East 12.7 mph 17.3 mph 0.04 in   Overcast
7:16 PM 46.4 °F 40.7 °F 37.4 °F 71% 29.00 in 8.0 mi East 12.7 mph 18.4 mph 0.01 in   Overcast
7:36 PM 46.4 °F 41.5 °F 39.2 °F 76% 29.01 in 8.0 mi East 10.4 mph - 0.03 in   Overcast
7:56 PM 46.4 °F 39.2 °F 39.2 °F 76% 29.03 in 10.0 mi SE 18.4 mph 24.2 mph 0.07 in   Overcast
8:16 PM 46.4 °F 39.5 °F 39.2 °F 76% 29.05 in 10.0 mi SE 17.3 mph 25.3 mph 0.11 in   Overcast
8:36 PM 46.4 °F 38.5 °F 39.2 °F 76% 29.05 in 10.0 mi ESE 21.9 mph 25.3 mph 0.17 in   Overcast
8:56 PM 46.4 °F 38.1 °F 39.2 °F 76% 29.14 in 8.0 mi SSW 24.2 mph 35.7 mph 0.22 in   Overcast
9:16 PM 46.4 °F 38.7 °F 37.4 °F 71% 29.23 in 8.0 mi South 20.7 mph 31.1 mph N/A   Overcast
9:36 PM 44.6 °F 37.2 °F 35.6 °F 71% 29.31 in 8.0 mi South 17.3 mph 29.9 mph 0.01 in   Overcast
9:56 PM 42.8 °F 37.0 °F 33.8 °F 70% 29.37 in 8.0 mi South 10.4 mph 28.8 mph 0.01 in   Overcast
10:16 PM 42.8 °F 34.3 °F 33.8 °F 70% 29.40 in 8.0 mi SSW 19.6 mph 31.1 mph 0.01 in   Overcast
10:36 PM 42.8 °F 40.1 °F 35.6 °F 76% 29.44 in 8.0 mi South 4.6 mph - 0.01 in   Overcast
10:56 PM 42.8 °F 37.0 °F 35.6 °F 76% 29.45 in 8.0 mi SE 10.4 mph - 0.02 in   Overcast
11:16 PM 42.8 °F 40.1 °F 35.6 °F 76% 29.47 in 10.0 mi SSE 4.6 mph - 0.01 in   Overcast
11:36 PM 42.8 °F 36.2 °F 35.6 °F 76% 29.49 in 10.0 mi SE 12.7 mph 17.3 mph 0.01 in   Overcast
11:56 PM 42.8 °F 41.1 °F 35.6 °F 76% 29.51 in 10.0 mi SE 3.5 mph - 0.01 in   Overcast